Fort Knox, KY

8:11 AM EDT on April 21, 2018 (GMT -0400)
Godman Army Air Field

Weather History for KFTK - January, 2013

Change the Weather History Date:

Wednesday, January 23, 2013

  Actual Average Record
Temperature  
Mean Temperature 26 °F -  
Max Temperature 38 °F 39 °F 64 °F (1999)
Min Temperature 13 °F 22 °F 1 °F (2003)
Degree Days  
Heating Degree Days 40    
Moisture  
Dew Point 11 °F    
Average Humidity 57    
Maximum Humidity 80    
Minimum Humidity 35    
Precipitation  
Precipitation 0.00 in - - ()
Sea Level Pressure  
Sea Level Pressure 30.28 in    
Wind  
Wind Speed 4 mph (SW)    
Max Wind Speed 13 mph    
Max Gust Speed -    
Visibility 10 miles    
Events      
Averages and records for this station are not official NWS values.
T = Trace of Precipitation, MM = Missing Value Source: NWS Daily Summary

Daily Weather History Graph

Daily Weather History Graph

Search for Another Location

Airport or City:

Astronomy

Jan. 23, 2013 Rise Set
Actual Time 7:54 AM EST 5:57 PM EST
Civil Twilight 7:26 AM EST 6:25 PM EST
Nautical Twilight 6:54 AM EST 6:57 PM EST
Astronomical Twilight 6:23 AM EST 7:28 PM EST
Moon 3:08 PM EST (1/23) 5:04 AM EST (1/23)
Length of Visible Light 10h 59m
Length of Day
10h 02m
Waxing Gibbous, 89% of the Moon is Illuminated
Jan 23
Waxing Gibbous
Jan 26
Full
Feb 3
Last Quarter
Feb 10
New
Feb 17
First Quarter

Hourly Weather History & Observations

Time (EST) Temp. Windchill Dew Point Humidity Pressure Visibility Wind Dir Wind Speed Gust Speed Precip Events Conditions
12:55 AM 15.8 °F 8.6 °F 4.3 °F 60% 30.40 in 10.0 mi West 4.6 mph - N/A   Mostly Cloudy
1:55 AM 15.4 °F - 6.4 °F 68% 30.39 in 10.0 mi Calm Calm - N/A   Mostly Cloudy
2:55 AM 17.1 °F - 4.6 °F 58% 30.39 in 10.0 mi Calm Calm - N/A   Mostly Cloudy
3:55 AM 14.5 °F 8.8 °F 6.1 °F 69% 30.39 in 10.0 mi SSW 3.5 mph - N/A   Clear
4:55 AM 14.0 °F - 7.9 °F 77% 30.39 in 10.0 mi Calm Calm - N/A   Clear
5:55 AM 14.4 °F - 6.1 °F 70% 30.37 in 10.0 mi Calm Calm - N/A   Clear
6:55 AM 13.1 °F - 8.1 °F 80% 30.37 in 10.0 mi Calm Calm - N/A   Clear
7:55 AM 13.5 °F - 8.2 °F 80% 30.38 in 10.0 mi Calm Calm - N/A   Mostly Cloudy
8:55 AM 17.4 °F - 7.2 °F 64% 30.38 in 10.0 mi Calm Calm - N/A   Mostly Cloudy
9:55 AM 22.1 °F 14.7 °F 7.5 °F 54% 30.38 in 10.0 mi South 5.8 mph - N/A   Scattered Clouds
10:55 AM 25.2 °F 19.5 °F 7.3 °F 47% 30.37 in 10.0 mi SSE 4.6 mph - N/A   Mostly Cloudy
11:55 AM 28.9 °F 19.8 °F 7.7 °F 41% 30.34 in 10.0 mi South 10.4 mph - N/A   Scattered Clouds
12:55 PM 32.2 °F 25.0 °F 8.6 °F 37% 30.28 in 10.0 mi South 8.1 mph - N/A   Scattered Clouds
1:55 PM 34.9 °F 29.0 °F 9.9 °F 35% 30.23 in 10.0 mi WSW 6.9 mph - N/A   Scattered Clouds
2:55 PM 37.0 °F 29.8 °F 12.9 °F 37% 30.20 in 10.0 mi South 10.4 mph - N/A   Mostly Cloudy
3:55 PM 38.1 °F 30.7 °F 14.2 °F 38% 30.17 in 10.0 mi SSW 11.5 mph - N/A   Scattered Clouds
4:55 PM 37.9 °F 31.5 °F 16.0 °F 41% 30.16 in 10.0 mi SSW 9.2 mph - N/A   Partly Cloudy
5:55 PM 34.5 °F 28.6 °F 17.1 °F 49% 30.14 in 10.0 mi SW 6.9 mph - N/A   Clear
6:55 PM 29.8 °F 24.9 °F 17.1 °F 59% 30.14 in 10.0 mi West 4.6 mph - N/A   Scattered Clouds
7:55 PM 27.1 °F 20.7 °F 16.9 °F 65% 30.13 in 10.0 mi WSW 5.8 mph - N/A   Clear
8:55 PM 28.9 °F 22.8 °F 17.2 °F 62% 30.13 in 10.0 mi West 5.8 mph - N/A   Mostly Cloudy
9:55 PM 27.9 °F 21.5 °F 17.8 °F 66% 30.16 in 10.0 mi West 5.8 mph - N/A   Mostly Cloudy
10:55 PM 31.3 °F 21.6 °F 19.0 °F 61% 30.16 in 10.0 mi West 12.7 mph - N/A   Clear
11:55 PM 32.0 °F 22.5 °F 19.0 °F 59% 30.17 in 10.0 mi WNW 12.7 mph - N/A   Clear